Weather History for Waseca, MN

Change the Weather History Date:

Thursday, November 3, 2011

  Actual Average Record
Temperature  
Mean Temperature 36 °F -  
Max Temperature 51 °F 47 °F 77 °F (2008)
Min Temperature 21 °F 29 °F 7 °F (1951)
Degree Days  
Heating Degree Days 29    
Moisture  
Dew Point 20 °F    
Average Humidity 56    
Maximum Humidity 86    
Minimum Humidity 22    
Precipitation  
Precipitation 0.00 in - - ()
Sea Level Pressure  
Sea Level Pressure 30.27 in    
Wind  
Wind Speed 6 mph (NNW)    
Max Wind Speed 12 mph    
Max Gust Speed -    
Visibility 10 miles    
Events      
Averages and records for this station are not official NWS values.
T = Trace of Precipitation, MM = Missing Value Source: NWS Daily Summary

Daily Weather History Graph

Daily Weather History Graph

Search for Another Location

Airport:

Trip Planner

Search our weather history database for the weather conditions in past years. The results will help you decide how hot, cold, wet, or windy it might be!

Date:

Astronomy

Nov. 03, 2011 Rise Set
Actual Time 7:53 AM CDT 6:01 PM CDT
Civil Twilight 7:22 AM CDT 6:32 PM CDT
Nautical Twilight 6:48 AM CDT 7:06 PM CDT
Astronomical Twilight 6:14 AM CDT 7:39 PM CDT
Moon 2:38 PM CDT (11/3) 12:52 AM CDT (11/3)
Length of Visible Light 11h 09m
Length of Day
10h 08m
First Quarter, 60% of the Moon is Illuminated
Nov 3
First Quarter
Nov 10
Full
Nov 18
Last Quarter
Nov 25
New
Dec 2
First Quarter

Hourly Weather History & Observations

Time (CDT) Temp. Windchill Dew Point Humidity Pressure Visibility Wind Dir Wind Speed Gust Speed Precip Events Conditions
12:15 AM 32.0 °F 26.4 °F 24.8 °F 75% 30.24 in 10.0 mi North 5.8 mph - N/A   Clear
12:55 AM 33.8 °F 25.8 °F 24.8 °F 70% 30.23 in 10.0 mi North 10.4 mph - N/A   Clear
1:15 AM 33.8 °F 27.0 °F 26.6 °F 75% 30.24 in 10.0 mi North 8.1 mph - N/A   Clear
1:35 AM 32.0 °F 25.6 °F 23.0 °F 69% 30.25 in 10.0 mi NNW 6.9 mph - N/A   Clear
1:55 AM 32.0 °F 24.2 °F 24.8 °F 75% 30.25 in 10.0 mi NNW 9.2 mph - N/A   Clear
2:15 AM 32.0 °F 24.8 °F 24.8 °F 75% 30.24 in 10.0 mi NNW 8.1 mph - N/A   Clear
2:36 AM 30.2 °F 23.4 °F 23.0 °F 75% 30.24 in 10.0 mi NNW 6.9 mph - N/A   Clear
2:55 AM 28.4 °F 24.6 °F 21.2 °F 74% 30.24 in 10.0 mi NNW 3.5 mph - N/A   Clear
3:15 AM 28.4 °F 24.6 °F 21.2 °F 74% 30.24 in 10.0 mi North 3.5 mph - N/A   Clear
3:36 AM 26.6 °F 20.0 °F 19.4 °F 74% 30.24 in 10.0 mi NNW 5.8 mph - N/A   Clear
4:15 AM 28.4 °F 19.7 °F 23.0 °F 80% 30.23 in 10.0 mi NNW 9.2 mph - N/A   Clear
4:36 AM 32.0 °F 23.6 °F 26.6 °F 80% 30.23 in 10.0 mi NNW 10.4 mph - N/A   Clear
4:56 AM 32.0 °F 23.0 °F 23.0 °F 69% 30.23 in 10.0 mi NNW 11.5 mph - N/A   Clear
5:15 AM 28.4 °F 22.2 °F 21.2 °F 74% 30.24 in 10.0 mi NNW 5.8 mph - N/A   Clear
5:35 AM 30.2 °F 24.3 °F 23.0 °F 75% 30.27 in 10.0 mi North 5.8 mph - N/A   Clear
5:56 AM 26.6 °F - 21.2 °F 80% 30.28 in 10.0 mi Calm Calm - N/A   Clear
6:15 AM 26.6 °F - 19.4 °F 74% 30.29 in 10.0 mi Calm Calm - N/A   Clear
6:35 AM 28.4 °F - 21.2 °F 74% 30.31 in 10.0 mi Calm Calm - N/A   Clear
6:56 AM 23.0 °F 15.8 °F 17.6 °F 80% 30.30 in 10.0 mi North 5.8 mph - N/A   Clear
7:15 AM 21.2 °F 16.4 °F 15.8 °F 80% 30.31 in 10.0 mi WNW 3.5 mph - N/A   Clear
7:35 AM 24.8 °F 20.5 °F 19.4 °F 80% 30.31 in 10.0 mi NW 3.5 mph - N/A   Clear
7:55 AM 23.0 °F 15.8 °F 17.6 °F 80% 30.31 in 10.0 mi NW 5.8 mph - N/A   Clear
8:15 AM 23.0 °F 14.7 °F 19.4 °F 86% 30.32 in 10.0 mi NW 6.9 mph - N/A   Clear
8:36 AM 24.8 °F 20.5 °F 19.4 °F 80% 30.32 in 10.0 mi North 3.5 mph - N/A   Clear
8:55 AM 26.6 °F - 19.4 °F 74% 30.32 in 10.0 mi Calm Calm - N/A   Clear
9:15 AM 26.6 °F - 21.2 °F 80% 30.32 in 10.0 mi Calm Calm - N/A   Clear
9:35 AM 32.0 °F - 26.6 °F 80% 30.32 in 10.0 mi Calm Calm - N/A   Clear
9:56 AM 33.8 °F 28.6 °F 28.4 °F 81% 30.30 in 10.0 mi North 5.8 mph - N/A   Clear
10:15 AM 37.4 °F 31.4 °F 28.4 °F 70% 30.30 in 10.0 mi North 8.1 mph - N/A   Clear
10:35 AM 39.2 °F 33.6 °F 26.6 °F 61% 30.30 in 10.0 mi North 8.1 mph - N/A   Clear
10:55 AM 42.8 °F 37.5 °F 26.6 °F 53% 30.29 in 10.0 mi North 9.2 mph - N/A   Clear
11:15 AM 42.8 °F 37.5 °F 24.8 °F 49% 30.30 in 10.0 mi NNE 9.2 mph - N/A   Clear
11:36 AM 44.6 °F 39.7 °F 23.0 °F 43% 30.29 in 10.0 mi North 9.2 mph - N/A   Clear
11:56 AM 44.6 °F 39.7 °F 21.2 °F 39% 30.28 in 10.0 mi NNE 9.2 mph - N/A   Clear
12:36 PM 46.4 °F 41.1 °F 19.4 °F 34% 30.28 in 10.0 mi North 11.5 mph - N/A   Clear
12:56 PM 50.0 °F - 19.4 °F 30% 30.27 in 10.0 mi NE 9.2 mph - N/A   Clear
1:15 PM 50.0 °F - 19.4 °F 30% 30.26 in 10.0 mi North 6.9 mph - N/A   Clear
1:36 PM 50.0 °F - 15.8 °F 26% 30.25 in 10.0 mi NE 4.6 mph - N/A   Clear
1:56 PM 51.8 °F - 17.6 °F 26% 30.25 in 10.0 mi NNW 6.9 mph - N/A   Clear
2:15 PM 51.8 °F - 17.6 °F 26% 30.24 in 10.0 mi NNW 8.1 mph - N/A   Clear
2:36 PM 51.8 °F - 15.8 °F 24% 30.24 in 10.0 mi North 9.2 mph - N/A   Clear
2:56 PM 51.8 °F - 15.8 °F 24% 30.24 in 10.0 mi NNW 3.5 mph - N/A   Clear
3:16 PM 51.8 °F - 15.8 °F 24% 30.24 in 10.0 mi NNE 3.5 mph - N/A   Clear
3:55 PM 51.8 °F - 14.0 °F 22% 30.24 in 10.0 mi Calm Calm - N/A   Clear
4:16 PM 51.8 °F - 14.0 °F 22% 30.24 in 10.0 mi West 3.5 mph - N/A   Clear
4:36 PM 51.8 °F - 14.0 °F 22% 30.25 in 10.0 mi Calm Calm - N/A   Clear
4:55 PM 51.8 °F - 14.0 °F 22% 30.25 in 10.0 mi Calm Calm - N/A   Clear
5:16 PM 50.0 °F - 14.0 °F 24% 30.25 in 10.0 mi Calm Calm - N/A   Clear
5:35 PM 48.2 °F - 12.2 °F 24% 30.25 in 10.0 mi WNW 3.5 mph - N/A   Clear
5:56 PM 44.6 °F 43.1 °F 14.0 °F 29% 30.25 in 10.0 mi WNW 3.5 mph - N/A   Clear
6:15 PM 44.6 °F 43.1 °F 14.0 °F 29% 30.25 in 10.0 mi WNW 3.5 mph - N/A   Clear
6:36 PM 42.8 °F 41.1 °F 14.0 °F 31% 30.26 in 10.0 mi NW 3.5 mph - N/A   Clear
6:55 PM 35.6 °F - 14.0 °F 41% 30.26 in 10.0 mi Calm Calm - N/A   Clear
7:16 PM 39.2 °F 37.0 °F 14.0 °F 36% 30.27 in 10.0 mi WNW 3.5 mph - N/A   Clear
8:16 PM 33.8 °F - 21.2 °F 60% 30.26 in 10.0 mi Calm Calm - N/A   Clear
8:35 PM 32.0 °F - 17.6 °F 55% 30.26 in 10.0 mi Calm Calm - N/A   Clear
8:55 PM 32.0 °F - 19.4 °F 60% 30.26 in 10.0 mi Calm Calm - N/A   Clear
9:16 PM 32.0 °F - 19.4 °F 60% 30.26 in 7.0 mi Calm Calm - N/A   Clear
9:35 PM 30.2 °F - 17.6 °F 60% 30.26 in 10.0 mi Calm Calm - N/A   Clear
9:55 PM 32.0 °F - 17.6 °F 55% 30.26 in 10.0 mi Calm Calm - N/A   Clear
10:16 PM 30.2 °F - 21.2 °F 69% 30.26 in 10.0 mi Calm Calm - N/A   Clear
10:36 PM 30.2 °F 25.4 °F 19.4 °F 64% 30.26 in 10.0 mi East 4.6 mph - N/A   Clear
10:55 PM 32.0 °F - 21.2 °F 64% 30.26 in 10.0 mi Calm Calm - N/A   Clear
11:55 PM 28.4 °F - 19.4 °F 69% 30.27 in 10.0 mi Calm Calm - N/A   Clear